STARLINK-11431, 62890

Orbit data source: Space-Track

STARLINK-11431, 62890 is a payload satellite owned by SpaceX/Seattle (US) in LEO that was launched on Tue, 04 Feb 2025 UTC via an FALCON 9 launch vehicle from the Air Force Eastern Test Range (AFETR). Payload-class satellites include a variety of spacecraft equipped with specific instruments for various scientific and technological missions. These include communications satellites like Starlink; space stations such as the ISS; scientific satellites like the Hubble; Earth observation satellites from companies like Planet Labs, Umbra, and HawkEye 360; GPS; miniature CubeSats for education and research; and military/defense satellites.

Loading next visibility...
Identifier
62890, 2025-024M
Orbit
LEO
Country
Flag of USUS
Related business
Manufacturer
SpaceX/Seattle
Mission
Operational Commercial Communications
Bus & Motor
STARLINK V2MD, Unknown motor
Mass
960 kg wet, ~910 kg dry
Launch date (UTC)
Icon of a cake. It is the launch day of the satellite!2025-02-04 (1 year ago)
Launch vehicle
FALCON 9
Launch site
Air Force Eastern Test Range (AFETR)
Object type
Payload
Rocket body
Debris
Shape & HBR
Box + 2 Pan, 18.1 m
Radar Cross Section
36.964 m², Large (>1 m²)

Expand to show TLE details & history
Last TLE update: 18 hours ago

TLE from 18 hours ago
0 STARLINK-11431
1 62890U 25024M   26035.00334562  .00386681  00000-0  28527-2 0  9995
2 62890  42.9983  24.9465 0001945 198.8452 161.2344 15.71058639 58164
Epoch: 2026-02-04T00:04Z
TLE epoch observation values (Epoch: 2026-02-04T00:04:49.061Z)
Latitude
-0.00002°
Longitude
-110.43411°
Altitude
356.881 km
Speed
7.696 km/s
True Right ascension
01h 39m 47s
True Declination
0° 00' 00"
Sunlit
Object was in daylight at epoch
Visualization orbit readout
Latitude
Unknown
Longitude
Unknown
Altitude
Unknown
Speed
Unknown
Apparent Right ascension
Unknown
Apparent Declination
Unknown
Sunlit
N/A
Visualization observer readout
Local Sidereal Time
20:15:46
Azimuth
Unknown
Elevation
Unknown
Doppler factor
Unknown
Orbital elements
Apogee altitude
359.162 km
Perigee altitude
356.542 km
Semi-major axis
6,735.989 km
Eccentricity
0.00019
Inclination
42.9983°
RAAN
24.9465°
Arg. of periapsis
198.8452°
True anomaly
161.24157°
Mean anomaly
161.2344°
Eccentric anomaly
161.23798°
Mean motion
3.92592 °/min
Orbital period
91.7 mins
BSTAR
0.0028527
Loading maneuver chart data...
Computing Atmospheric mass density...
Loading historical data...
Loading historical data...
Loading historical data...
Loading historical data...
Loading historical data...
Loading historical data...
Loading historical data...

Documentation

Showing up to 5 results
|